TimeEDT,TemperatureF,Dew PointF,Humidity,Sea Level PressureIn,VisibilityMPH,Wind Direction,Wind SpeedMPH,Gust SpeedMPH,PrecipitationIn,Events,Conditions,WindDirDegrees,DateUTC
12:54 AM,75.9,-9999,N/A,29.87,10.0,Variable,3.5,-,N/A,,Clear,0,2013-07-21 04:54:00
1:54 AM,75.0,-9999,N/A,29.88,10.0,SSW,4.6,-,0.00,,Mostly Cloudy,210,2013-07-21 05:54:00
2:54 AM,75.0,-9999,N/A,29.87,8.0,Calm,Calm,-,N/A,,Partly Cloudy,0,2013-07-21 06:54:00
3:54 AM,75.0,-9999,N/A,29.86,9.0,WSW,4.6,-,N/A,,Clear,240,2013-07-21 07:54:00
5:54 AM,75.0,-9999,N/A,29.88,10.0,West,3.5,-,N/A,,Clear,260,2013-07-21 09:54:00
6:54 AM,75.0,-9999,N/A,29.90,9.0,West,6.9,-,N/A,,Partly Cloudy,260,2013-07-21 10:54:00
7:54 AM,75.9,-9999,N/A,29.92,8.0,Calm,Calm,-,0.00,Rain,Light Rain,0,2013-07-21 11:54:00
9:54 AM,80.1,-9999,N/A,29.92,9.0,Calm,Calm,-,0.00,,Partly Cloudy,0,2013-07-21 13:54:00
10:54 AM,82.9,73.0,72,29.93,9.0,East,5.8,-,N/A,,Clear,90,2013-07-21 14:54:00
11:54 AM,84.0,72.0,67,29.94,10.0,ESE,3.5,-,N/A,,Partly Cloudy,110,2013-07-21 15:54:00
1:54 PM,87.1,73.0,63,29.93,10.0,NNE,6.9,-,N/A,,Mostly Cloudy,20,2013-07-21 17:54:00
2:54 PM,86.0,70.0,59,29.93,10.0,SE,5.8,-,N/A,,Partly Cloudy,130,2013-07-21 18:54:00
3:44 PM,87.8,69.8,55,29.92,10.0,Calm,Calm,-,N/A,Thunderstorm,Partly Cloudy,0,2013-07-21 19:44:00
3:54 PM,88.0,71.1,57,29.91,10.0,SE,5.8,-,N/A,Thunderstorm,Clear,130,2013-07-21 19:54:00
4:54 PM,79.0,70.0,74,29.92,10.0,NE,15.0,-,N/A,,Mostly Cloudy,50,2013-07-21 20:54:00
5:54 PM,77.0,71.1,82,29.92,10.0,East,6.9,-,N/A,,Clear,90,2013-07-21 21:54:00
6:54 PM,79.0,70.0,74,29.93,10.0,ESE,9.2,-,N/A,,Mostly Cloudy,110,2013-07-21 22:54:00
7:54 PM,78.1,70.0,76,29.94,10.0,ESE,10.4,-,N/A,,Partly Cloudy,120,2013-07-21 23:54:00
8:54 PM,75.9,69.1,79,29.95,10.0,SE,4.6,-,N/A,,Clear,130,2013-07-22 00:54:00
9:54 PM,73.9,69.1,85,29.95,10.0,Calm,Calm,-,N/A,,Clear,0,2013-07-22 01:54:00
10:54 PM,75.0,69.1,82,29.96,10.0,Calm,Calm,-,N/A,,Clear,0,2013-07-22 02:54:00
11:54 PM,73.0,69.1,87,29.96,10.0,NE,3.5,-,N/A,,Clear,50,2013-07-22 03:54:00